TimeCST,TemperatureF,Dew PointF,Humidity,Sea Level PressureIn,VisibilityMPH,Wind Direction,Wind SpeedMPH,Gust SpeedMPH,PrecipitationIn,Events,Conditions,WindDirDegrees,DateUTC
12:15 AM,15.8,11.8,84,30.15,10.0,North,18.4,-,N/A,,Overcast,10,2014-01-02 06:15:00
12:35 AM,15.6,11.7,84,30.15,10.0,North,15.0,18.4,N/A,,Overcast,10,2014-01-02 06:35:00
12:55 AM,15.6,11.7,84,30.15,10.0,NNE,18.4,-,N/A,,Overcast,20,2014-01-02 06:55:00
1:15 AM,15.6,11.3,83,30.15,10.0,North,15.0,23.0,N/A,,Overcast,10,2014-01-02 07:15:00
1:35 AM,14.7,10.4,83,30.15,10.0,North,13.8,-,N/A,,Overcast,10,2014-01-02 07:35:00
1:55 AM,14.4,10.0,83,30.16,10.0,North,15.0,20.7,N/A,,Overcast,10,2014-01-02 07:55:00
2:15 AM,14.4,9.7,82,30.16,10.0,North,13.8,-,N/A,,Overcast,10,2014-01-02 08:15:00
2:35 AM,14.4,9.5,81,30.16,10.0,North,15.0,-,N/A,,Overcast,360,2014-01-02 08:35:00
2:55 AM,13.5,8.8,82,30.15,10.0,North,18.4,26.5,N/A,,Overcast,360,2014-01-02 08:55:00
3:15 AM,13.1,8.6,82,30.14,7.0,North,19.6,23.0,N/A,Snow,Light Snow,360,2014-01-02 09:15:00
3:35 AM,13.1,8.6,82,30.14,5.0,North,19.6,24.2,N/A,Snow,Light Snow,360,2014-01-02 09:35:00
3:55 AM,12.9,8.4,82,30.14,5.0,North,20.7,24.2,N/A,Snow,Light Snow,360,2014-01-02 09:55:00
4:15 AM,12.7,8.2,82,30.14,5.0,North,20.7,27.6,N/A,Snow,Light Snow,360,2014-01-02 10:15:00
4:35 AM,12.7,8.2,82,30.14,5.0,North,19.6,25.3,N/A,Snow,Light Snow,360,2014-01-02 10:35:00
4:55 AM,12.9,8.4,82,30.15,7.0,North,20.7,25.3,N/A,Snow,Light Snow,360,2014-01-02 10:55:00
5:15 AM,13.1,8.6,82,30.16,7.0,North,19.6,26.5,N/A,Snow,Light Snow,360,2014-01-02 11:15:00
5:35 AM,13.1,8.6,82,30.16,5.0,North,18.4,24.2,N/A,Snow,Light Snow,360,2014-01-02 11:35:00
5:55 AM,13.1,8.6,82,30.16,5.0,North,20.7,26.5,N/A,Snow,Light Snow,360,2014-01-02 11:55:00
6:15 AM,13.5,9.0,82,30.17,7.0,North,17.3,-,N/A,,Overcast,360,2014-01-02 12:15:00
6:35 AM,13.5,8.6,81,30.17,7.0,North,18.4,25.3,N/A,,Overcast,360,2014-01-02 12:35:00
6:55 AM,13.1,8.6,82,30.17,10.0,North,18.4,25.3,N/A,,Overcast,350,2014-01-02 12:55:00
7:15 AM,13.1,8.4,82,30.18,10.0,North,21.9,25.3,N/A,,Overcast,360,2014-01-02 13:15:00
7:35 AM,13.1,8.2,81,30.18,10.0,North,19.6,24.2,N/A,,Overcast,350,2014-01-02 13:35:00
7:55 AM,13.1,8.2,81,30.19,10.0,North,19.6,-,N/A,,Overcast,350,2014-01-02 13:55:00
8:15 AM,13.1,8.2,81,30.20,7.0,North,18.4,25.3,N/A,,Overcast,350,2014-01-02 14:15:00
8:35 AM,12.9,7.9,80,30.21,7.0,North,18.4,26.5,N/A,,Overcast,350,2014-01-02 14:35:00
8:55 AM,13.1,8.2,81,30.21,5.0,North,17.3,24.2,N/A,,Haze,360,2014-01-02 14:55:00
9:15 AM,13.1,8.4,82,30.23,10.0,North,21.9,25.3,N/A,,Overcast,360,2014-01-02 15:15:00
9:35 AM,13.3,8.6,82,30.23,7.0,North,21.9,25.3,N/A,,Overcast,360,2014-01-02 15:35:00
9:55 AM,13.6,8.6,80,30.24,7.0,North,20.7,24.2,N/A,,Overcast,360,2014-01-02 15:55:00
10:15 AM,14.4,9.5,81,30.25,10.0,North,17.3,23.0,N/A,,Overcast,350,2014-01-02 16:15:00
10:35 AM,14.4,9.5,81,30.25,10.0,North,12.7,21.9,N/A,,Overcast,360,2014-01-02 16:35:00
10:55 AM,14.4,9.3,80,30.25,5.0,North,19.6,24.2,N/A,,Haze,350,2014-01-02 16:55:00
11:15 AM,14.4,9.5,81,30.25,5.0,NNW,17.3,24.2,N/A,,Haze,340,2014-01-02 17:15:00
11:35 AM,14.4,9.1,80,30.25,10.0,NNW,17.3,-,N/A,,Overcast,340,2014-01-02 17:35:00
11:55 AM,14.7,9.3,79,30.25,10.0,NNW,17.3,21.9,N/A,,Overcast,340,2014-01-02 17:55:00
12:15 PM,14.9,9.5,79,30.25,10.0,NNW,13.8,-,N/A,,Overcast,340,2014-01-02 18:15:00
12:35 PM,14.9,9.3,79,30.25,10.0,North,18.4,-,N/A,,Overcast,350,2014-01-02 18:35:00
12:55 PM,15.4,9.5,77,30.25,10.0,North,18.4,25.3,N/A,,Mostly Cloudy,360,2014-01-02 18:55:00
1:15 PM,15.8,9.7,77,30.25,10.0,North,17.3,23.0,N/A,,Mostly Cloudy,350,2014-01-02 19:15:00
1:35 PM,16.0,9.7,76,30.25,10.0,North,17.3,24.2,N/A,,Scattered Clouds,360,2014-01-02 19:35:00
1:55 PM,15.6,9.3,76,30.26,10.0,North,20.7,24.2,N/A,,Clear,360,2014-01-02 19:55:00
2:15 PM,15.8,9.1,75,30.28,10.0,North,16.1,-,N/A,,Clear,350,2014-01-02 20:15:00
2:35 PM,15.4,8.8,75,30.29,10.0,North,17.3,20.7,N/A,,Clear,360,2014-01-02 20:35:00
2:55 PM,14.9,7.7,73,30.29,10.0,North,17.3,23.0,N/A,,Clear,360,2014-01-02 20:55:00
3:15 PM,14.7,7.7,74,30.30,10.0,North,13.8,-,N/A,,Clear,360,2014-01-02 21:15:00
3:35 PM,14.4,7.3,74,30.31,10.0,North,16.1,-,N/A,,Clear,350,2014-01-02 21:35:00
3:55 PM,13.1,6.4,75,30.33,10.0,North,15.0,-,N/A,,Scattered Clouds,350,2014-01-02 21:55:00
4:15 PM,13.6,6.3,72,30.33,10.0,NNW,12.7,-,N/A,,Mostly Cloudy,340,2014-01-02 22:15:00
4:35 PM,13.5,5.9,72,30.34,10.0,NNW,11.5,-,N/A,,Overcast,330,2014-01-02 22:35:00
4:55 PM,12.2,5.9,76,30.35,10.0,NNW,9.2,-,N/A,,Scattered Clouds,340,2014-01-02 22:55:00
5:15 PM,11.8,5.7,76,30.36,10.0,NNW,9.2,-,N/A,,Clear,340,2014-01-02 23:15:00
5:35 PM,11.3,4.6,75,30.36,10.0,NNW,10.4,-,N/A,,Clear,330,2014-01-02 23:35:00
5:55 PM,10.4,4.1,76,30.38,10.0,NNW,10.4,-,N/A,,Clear,330,2014-01-02 23:55:00
6:15 PM,10.0,3.7,76,30.38,10.0,NNW,11.5,-,N/A,,Clear,330,2014-01-03 00:15:00
6:35 PM,9.5,3.2,76,30.39,10.0,NNW,11.5,-,N/A,,Clear,330,2014-01-03 00:35:00
6:55 PM,9.3,2.7,74,30.39,10.0,NNW,13.8,-,N/A,,Clear,330,2014-01-03 00:55:00
7:15 PM,8.8,2.1,74,30.40,10.0,NNW,11.5,-,N/A,,Clear,330,2014-01-03 01:15:00
7:35 PM,8.1,1.4,74,30.41,10.0,NNW,10.4,-,N/A,,Clear,330,2014-01-03 01:35:00
7:55 PM,8.1,1.4,74,30.41,10.0,NNW,8.1,-,N/A,,Clear,330,2014-01-03 01:55:00
8:15 PM,6.8,0.5,75,30.42,10.0,NW,4.6,-,N/A,,Clear,320,2014-01-03 02:15:00
8:35 PM,6.1,0.1,77,30.41,10.0,Calm,Calm,-,N/A,,Clear,0,2014-01-03 02:35:00
8:55 PM,5.7,0.1,78,30.41,10.0,Calm,Calm,-,N/A,,Clear,0,2014-01-03 02:55:00
9:15 PM,4.3,-0.9,79,30.42,10.0,Calm,Calm,-,N/A,,Clear,0,2014-01-03 03:15:00
9:35 PM,3.4,-1.8,79,30.43,10.0,WNW,6.9,-,N/A,,Clear,300,2014-01-03 03:35:00
9:55 PM,3.2,-2.2,78,30.43,10.0,NW,6.9,-,N/A,,Clear,320,2014-01-03 03:55:00
10:15 PM,3.7,-1.7,78,30.43,10.0,NW,8.1,-,N/A,,Clear,310,2014-01-03 04:15:00
10:35 PM,2.8,-2.2,79,30.43,10.0,WNW,8.1,-,N/A,,Clear,300,2014-01-03 04:35:00
10:55 PM,3.0,-2.2,79,30.43,10.0,NW,5.8,-,N/A,,Clear,310,2014-01-03 04:55:00
11:15 PM,3.0,-2.0,80,30.42,10.0,NW,5.8,-,N/A,,Clear,320,2014-01-03 05:15:00
11:35 PM,1.9,-2.9,80,30.42,10.0,WNW,4.6,-,N/A,,Clear,300,2014-01-03 05:35:00
11:55 PM,2.3,-2.2,81,30.41,10.0,NW,6.9,-,N/A,,Clear,310,2014-01-03 05:55:00